[[{"header":{"parameterUnit":"m.s-1","parameterCategory":1,"la1":30.2991,"la2":30.254,"lo1":-89.0895,"lo2":-89.0444,"dy":0.0017,"dx":0.0017,"nx":28,"ny":28,"refTime":"2025-08-13T21:00:00:Z","depth":0,"parameterNumber":2,"parameterNumberName":"U-component_of_WINDS"},"data":[0,0,0,0,0,0,0,0,0,0,0,0,0,0,0,0,0,0,0,0,0,0,0,0,0,0,0,0,0,0,0,0,0,0,0,0,0,0,0,0,0,0,0,0,0,0,0,0,0,0,0,0,0,0,0,0,0,0,1.9162,1.9161,0,1.9135,1.9134,1.9134,1.904,1.9038,1.9036,1.9034,1.9007,1.9008,1.901,0,0,0,0,0,0,0,0,0,0,0,0,0,1.9134,1.9135,1.9162,1.9161,1.9161,1.9135,1.9134,1.9134,1.9041,1.9038,1.9036,1.9033,1.9007,1.9008,1.901,0,0,0,0,0,0,0,0,0,0,0,0,0,1.9131,1.9136,1.9162,1.9111,1.9106,1.9135,1.9134,1.9134,1.9041,1.9038,1.9035,1.9032,1.9006,1.9008,1.901,1.9085,0,0,1.9016,1.9017,0,0,0,0,0,0,0,0,1.9131,1.9132,1.9119,1.9115,1.9109,1.9088,1.9115,1.9118,1.9042,1.9066,1.9034,1.903,1.9037,1.9036,1.9038,1.9084,1.9083,1.9016,1.9017,1.9018,1.9018,0,0,0,0,0,0,0,1.9131,1.9132,1.9151,1.9119,1.9113,1.9091,1.9087,1.9115,1.9069,1.9064,1.9057,1.9055,1.9033,1.9036,1.9036,1.9082,1.9016,1.9018,1.9019,1.9019,1.9191,1.9194,0,0,0,0,0,0,1.9139,1.9133,1.9152,1.915,1.9113,1.9094,1.9089,1.9098,1.9069,1.9061,1.9058,1.9051,1.9034,1.9034,1.9035,1.9122,1.9018,1.902,1.9021,1.9187,1.9191,1.9195,0,0,0,0,0,0,1.9138,1.9141,1.9153,1.914,1.914,1.9098,1.9108,1.9099,1.9101,1.9064,1.9056,1.9069,1.9032,1.9032,1.9074,1.9119,1.902,1.9022,1.9183,1.9188,1.9193,1.9296,0,0,0,0,0,0,1.9138,1.9142,1.9169,1.9141,1.9141,1.9192,1.9111,1.9101,1.9105,1.9096,1.9072,1.9065,1.9029,1.9071,1.9076,1.912,1.9024,1.9179,1.9186,1.9192,1.9288,1.9304,1.9317,0,0,0,0,0,1.9137,1.9199,1.9171,1.9174,1.9174,1.9194,1.9194,1.9151,1.9109,1.9137,1.9113,1.9066,1.9114,1.9076,1.908,1.9126,1.9176,1.9184,1.9191,1.9281,1.9301,1.9317,0,0,0,0,0,0,1.9232,1.9194,1.9163,1.9217,1.921,1.9178,1.9212,1.9173,1.9177,1.9168,1.9115,1.9111,1.916,1.9147,1.9106,1.9199,1.9137,1.9146,1.9205,1.9223,1.9237,1.9238,1.9025,0,0,0,0,0,1.926,1.9279,1.9245,1.9296,1.9294,1.9254,1.9261,1.9229,1.9219,1.9216,1.9195,1.9188,1.9202,1.9211,1.9222,1.9286,1.928,1.932,1.9335,1.9347,1.9355,1.9389,1.9407,1.922,1.922,1.922,0,0,1.9316,1.9297,1.9313,1.9314,1.9305,1.9327,1.9252,1.9278,1.9294,1.922,1.9257,1.9243,1.9231,1.9285,1.9308,1.9276,1.9405,1.9357,1.9367,1.9368,1.9399,1.9417,1.9432,1.9226,1.9225,1.9224,0,0,1.9429,1.9418,1.9459,1.9452,1.9439,1.9413,1.9423,1.9399,1.9386,1.9423,1.9369,1.9388,1.9412,1.9406,1.9407,1.9522,1.948,1.9527,1.9603,1.9637,1.9652,1.9665,1.9706,1.9722,1.9536,1.9536,1.9536,0,1.9501,1.9531,1.9486,1.9516,1.9519,1.9454,1.9496,1.9492,1.9483,1.9487,1.9452,1.9482,1.947,1.9522,1.9551,1.9553,1.9564,1.9529,1.9653,1.9666,1.9677,1.9716,1.9732,1.9542,1.9541,1.954,1.954,0,1.962,1.9643,1.9678,1.9672,1.9679,1.9716,1.9676,1.9689,1.9658,1.9635,1.9675,1.9659,1.9665,1.9675,1.9644,1.9724,1.9705,1.9663,1.96,1.9701,1.9737,1.9752,1.955,1.9548,1.9546,1.9545,0,0,1.979,1.9761,1.9774,1.9772,1.9755,1.9771,1.9806,1.9812,1.9825,1.9822,1.985,1.9873,1.9835,1.9836,1.9804,1.9834,1.9927,1.9788,1.9787,1.9814,2.0015,2.0047,2.0064,1.99,1.9902,1.9905,2.0016,0,1.9898,1.9954,1.9916,1.9979,2.0,1.994,1.997,1.9964,1.9945,1.996,1.9939,1.9957,1.9904,1.9904,1.9932,1.991,1.9967,1.9902,1.9925,1.9927,1.9929,2.0083,2.0116,2.0222,2.003,2.0032,2.0034,0,2.003,2.0035,2.01,2.0081,2.0088,2.0116,2.012,2.0136,2.0128,2.0112,2.0114,2.0076,2.0109,2.0049,2.0094,2.0051,2.0059,2.005,2.0053,2.0053,1.9986,2.0087,2.0254,2.027,2.0055,2.0053,2.0052,0,2.0148,2.017,2.0212,2.0212,2.0191,2.0212,2.0204,2.0193,2.02,2.0204,2.0209,2.0217,2.0221,2.0229,2.0194,2.0153,2.0245,2.0181,2.0233,2.0234,2.0253,2.0252,2.0424,2.026,2.026,2.0259,2.0259,0,2.0272,2.0314,2.0265,2.0291,2.0338,2.0294,2.0341,2.0327,2.0319,2.0341,2.0291,2.0314,2.0266,2.0284,2.0257,2.03,2.0302,2.0291,2.0283,2.0295,2.0296,2.0298,2.0289,2.0264,2.0263,2.0262,2.0261,0,2.0409,2.0378,2.0421,2.0398,2.0394,2.0429,2.0409,2.0433,2.0412,2.0442,2.0446,2.0413,2.0432,2.0398,2.0413,2.0395,2.0454,2.0435,2.0457,2.0451,2.0504,2.05,2.0683,2.0705,2.0528,2.0529,2.0531,0,2.049,2.0521,2.0503,2.0515,2.051,2.053,2.0538,2.0497,2.0507,2.0503,2.0527,2.0542,2.0552,2.0585,2.0563,2.0574,2.0554,2.0618,2.0556,2.0567,2.0555,2.0553,2.0557,2.063,2.0633,2.0634,2.0636,0,2.0636,2.062,2.0633,2.0642,2.0653,2.0658,2.0659,2.0672,2.0629,2.0644,2.0663,2.0671,2.0687,2.0703,2.0709,2.0701,2.0662,2.0656,2.0668,2.068,2.0691,2.0686,2.0491,2.0651,2.065,2.0649,2.0648,2.0647,2.0747,2.0773,2.0765,2.0782,2.0779,2.0782,2.0804,2.0786,2.0802,2.0812,2.0787,2.0813,2.0806,2.0811,2.0808,2.0828,2.0799,2.0818,2.0822,2.0827,2.0835,2.069,2.0829,2.0828,2.0828,2.0827,2.0827,0,2.089,2.0883,2.0899,2.0904,2.0918,2.0881,2.0881,2.0895,2.0919,2.0916,2.0927,2.0951,2.0967,2.0946,2.0959,2.0979,2.0961,2.0983,2.0981,2.098,2.086,2.0848,2.0997,2.0997,2.0997,2.0997,2.0997,2.0997,2.0966,2.1008,2.0992,2.1033,2.1025,2.1051,2.1054,2.1057,2.1055,2.1084,2.1097,2.1084,2.1075,2.1087,2.11,2.1094,2.1101,2.1129,2.1117,2.1005,2.0988,2.0972,2.096,2.1131,2.1132,2.1235,2.1236,2.1237]},{"header":{"parameterUnit":"m.s-1","parameterCategory":1,"la1":30.2991,"la2":30.254,"lo1":-89.0895,"lo2":-89.0444,"dy":0.0017,"dx":0.0017,"nx":28,"ny":28,"refTime":"2025-08-13T21:00:00:Z","depth":0,"parameterNumber":3,"parameterNumberName":"V-component_of_WINDS"},"data":[0,0,0,0,0,0,0,0,0,0,0,0,0,0,0,0,0,0,0,0,0,0,0,0,0,0,0,0,0,0,0,0,0,0,0,0,0,0,0,0,0,0,0,0,0,0,0,0,0,0,0,0,0,0,0,0,0,0,3.3612,3.3613,0,3.367,3.3671,3.3671,3.3715,3.3715,3.3716,3.3716,3.3771,3.3772,3.3773,0,0,0,0,0,0,0,0,0,0,0,0,0,3.3533,3.3535,3.3612,3.3613,3.3614,3.367,3.3671,3.3671,3.3715,3.3715,3.3716,3.3716,3.377,3.3772,3.3773,0,0,0,0,0,0,0,0,0,0,0,0,0,3.3577,3.3535,3.3612,3.3642,3.3645,3.367,3.3671,3.3672,3.3715,3.3715,3.3716,3.3716,3.377,3.3772,3.3773,3.3771,0,0,3.3778,3.3779,0,0,0,0,0,0,0,0,3.3574,3.358,3.3637,3.364,3.3644,3.3686,3.3663,3.3705,3.3714,3.3688,3.3716,3.3717,3.3742,3.3746,3.3755,3.3774,3.3776,3.3778,3.3779,3.378,3.378,0,0,0,0,0,0,0,3.3571,3.3577,3.3635,3.3638,3.3642,3.3651,3.3658,3.3671,3.3711,3.3691,3.3694,3.37,3.3744,3.3753,3.3757,3.3777,3.3778,3.378,3.3781,3.3781,3.3793,3.3792,0,0,0,0,0,0,3.3564,3.3575,3.3633,3.3637,3.361,3.3652,3.3659,3.3672,3.3711,3.3717,3.37,3.3702,3.375,3.3755,3.3759,3.3757,3.378,3.3782,3.3782,3.3793,3.3793,3.3792,0,0,0,0,0,0,3.3563,3.3569,3.3631,3.3607,3.3615,3.3652,3.3666,3.3673,3.3682,3.3718,3.3724,3.3703,3.3751,3.3757,3.3767,3.3759,3.3782,3.3784,3.3794,3.3793,3.3792,3.3753,0,0,0,0,0,0,3.356,3.3568,3.357,3.3606,3.3616,3.364,3.3666,3.3673,3.3686,3.3689,3.3722,3.3728,3.3752,3.3765,3.3769,3.3762,3.3785,3.3795,3.3794,3.3792,3.3756,3.3751,3.3748,0,0,0,0,0,3.3557,3.3556,3.3569,3.3576,3.3619,3.364,3.3645,3.3673,3.3685,3.3685,3.3707,3.3727,3.376,3.3765,3.377,3.3764,3.3796,3.3794,3.3793,3.3757,3.3752,3.3748,0,0,0,0,0,0,3.3517,3.3562,3.3577,3.3588,3.361,3.3647,3.3649,3.3667,3.3685,3.3688,3.3721,3.3728,3.3734,3.375,3.3756,3.3762,3.378,3.3779,3.3751,3.3747,3.3743,3.3738,3.3786,0,0,0,0,0,3.351,3.3524,3.3562,3.3568,3.3578,3.3611,3.3621,3.3641,3.3664,3.3673,3.3696,3.3717,3.3731,3.374,3.3755,3.3758,3.3764,3.3756,3.3752,3.3748,3.3747,3.3746,3.3742,3.3787,3.3787,3.3787,0,0,3.3494,3.3521,3.3528,3.3561,3.358,3.3592,3.3619,3.3631,3.364,3.3675,3.3686,3.3703,3.3728,3.3734,3.3738,3.3747,3.3736,3.3746,3.3743,3.3744,3.3744,3.374,3.3736,3.3786,3.3786,3.3786,0,0,3.3473,3.3495,3.3501,3.3519,3.3548,3.3569,3.357,3.3604,3.3617,3.3629,3.3655,3.3664,3.3689,3.3705,3.3716,3.3696,3.3714,3.37,3.3679,3.3678,3.3674,3.3671,3.3661,3.3658,3.3699,3.3699,3.3699,0,3.345,3.3471,3.3502,3.3512,3.3524,3.3557,3.3562,3.3577,3.3609,3.3615,3.3626,3.3656,3.3675,3.3684,3.3679,3.3688,3.3688,3.3696,3.3672,3.367,3.3667,3.3658,3.3655,3.3697,3.3697,3.3697,3.3698,0,3.344,3.3454,3.3455,3.3485,3.3497,3.3505,3.3534,3.3543,3.356,3.358,3.3589,3.3613,3.3633,3.3636,3.3654,3.3646,3.3651,3.3667,3.3685,3.366,3.3652,3.365,3.3694,3.3695,3.3695,3.3696,0,0,3.3396,3.3441,3.3441,3.3453,3.3485,3.3495,3.3503,3.3522,3.3527,3.3547,3.3552,3.3571,3.3585,3.3598,3.3617,3.3616,3.3595,3.3632,3.3633,3.3622,3.3585,3.3571,3.3567,3.3608,3.3607,3.3607,3.3582,0,3.3378,3.3395,3.3421,3.3428,3.3439,3.3468,3.3474,3.3493,3.351,3.3521,3.354,3.3552,3.3571,3.3578,3.3578,3.3598,3.3588,3.36,3.361,3.361,3.3602,3.3563,3.355,3.3525,3.3579,3.3579,3.3578,0,3.336,3.3378,3.3385,3.3413,3.3419,3.3424,3.3442,3.3453,3.3473,3.3486,3.3498,3.3519,3.3525,3.3542,3.355,3.3558,3.3563,3.3573,3.3572,3.3573,3.3592,3.3561,3.3518,3.3514,3.3574,3.3575,3.3575,0,3.3324,3.335,3.3357,3.3367,3.3401,3.3403,3.3417,3.3438,3.3447,3.3462,3.3467,3.3483,3.3491,3.3501,3.3524,3.3536,3.3528,3.3548,3.3536,3.3536,3.3533,3.3532,3.3488,3.3539,3.3539,3.354,3.354,0,3.3301,3.3304,3.3341,3.3346,3.3349,3.3377,3.3379,3.3395,3.3413,3.3419,3.3445,3.345,3.3481,3.3489,3.3507,3.3508,3.3512,3.3521,3.3525,3.3517,3.3516,3.352,3.3522,3.3539,3.3539,3.3539,3.3539,0,3.3262,3.3288,3.3297,3.3327,3.3334,3.3335,3.336,3.3363,3.3381,3.3388,3.3392,3.3419,3.3429,3.3453,3.347,3.3482,3.3477,3.3487,3.347,3.3473,3.3459,3.3459,3.3414,3.3409,3.3465,3.3465,3.3464,0,3.3245,3.3248,3.3277,3.3283,3.3296,3.3306,3.3314,3.3342,3.3349,3.3371,3.3371,3.3383,3.3394,3.3407,3.3428,3.3439,3.3448,3.3432,3.345,3.3441,3.3445,3.3443,3.3442,3.3427,3.3426,3.3426,3.3425,0,3.3211,3.3222,3.3234,3.3249,3.3259,3.3272,3.3287,3.3289,3.332,3.3326,3.3337,3.3345,3.336,3.3371,3.3385,3.3397,3.3415,3.3419,3.3417,3.3408,3.3397,3.34,3.3457,3.342,3.3421,3.3421,3.3421,3.3421,3.3181,3.3183,3.3203,3.3215,3.3228,3.324,3.3244,3.3262,3.3271,3.3286,3.3301,3.3309,3.3325,3.3346,3.3357,3.3362,3.3371,3.3368,3.3367,3.3365,3.3361,3.3398,3.3365,3.3365,3.3365,3.3365,3.3365,0,3.3146,3.316,3.317,3.3188,3.3196,3.3213,3.3229,3.3233,3.324,3.3255,3.3264,3.3274,3.3283,3.3303,3.3314,3.3313,3.3321,3.3315,3.3314,3.3316,3.3353,3.3353,3.3308,3.3308,3.3308,3.3308,3.3308,3.3308,3.3129,3.3133,3.3146,3.3155,3.3168,3.3176,3.3183,3.3193,3.3204,3.3214,3.3221,3.3235,3.325,3.3262,3.327,3.3275,3.3276,3.3267,3.3274,3.3308,3.3314,3.3319,3.3319,3.3267,3.3267,3.3237,3.3236,3.3236]}]]